Regional Weather Roundup
Issued by NWS

Home | Current Version | Previous Version | Graphics & Text | Print | Product List | Glossary On
Versions: 1 2 3 4 5 6 7 8 9 10 11 12 13 14 15 16 17 18 19 20 21 22 23 24 25 26 27 28 29 30 31 32 33 34 35 36 37 38 39 40 41 42 43 44 45 46 47 48 49 50
000
ASUS43 KLSX 300859
RWRMO

WEATHER SUMMARY FOR MISSOURI
NATIONAL WEATHER SERVICE SPRINGFIELD MO
400 AM CDT TUE SEP 30 2014

NOTE: "FAIR" INDICATES FEW OR NO CLOUDS BELOW 12,000 FEET WITH NO
       SIGNIFICANT WEATHER AND/OR OBSTRUCTIONS TO VISIBILITY.
       CURRENT SKY AND/OR WEATHER CONDITIONS ARE NOT AVAILABLE FOR
       CHILLICOTHE AND FARMINGTON.

MOZ001>031-035>038-043-044-053-054-301000-
...NORTHERN AND WESTERN MISSOURI...

CITY           SKY/WX    TMP DP  RH WIND       PRES   REMARKS
KANSAS CTY INT PTCLDY    63  58  83 SE8       29.94F
KANSAS C DTWN  MOCLDY    65  60  84 E3        29.94F
LEE`S SUMMIT   MOCLDY    66  58  75 S3        29.96F
ST JOSEPH      PTCLDY    56  55  97 CALM      29.93F
CHILLICOTHE      N/A     58  56  93 CALM      29.97F
KIRKSVILLE     CLEAR     57  54  89 CALM      29.98S

$$
MOZ066>068-077>081-088>096-101>105-301000-
...SOUTHWEST MISSOURI...

CITY           SKY/WX    TMP DP  RH WIND       PRES   REMARKS
SPRINGFIELD    CLEAR     61  56  83 SE7       29.97F
JOPLIN         CLEAR     60  58  92 CALM      29.96F

$$
MOZ032>034-039>042-045>050-055>058-069>072-301000-
...CENTRAL MISSOURI...

CITY           SKY/WX    TMP DP  RH WIND       PRES   REMARKS
COLUMBIA       CLEAR     63  56  78 CALM      29.97F
JEFFERSON CITY CLEAR     58  55  90 CALM      29.96F
ROLLA          CLEAR     59  52  77 S3        29.97S
SEDALIA        CLEAR     63  57  81 S5        29.97F
OSAGE BEACH    CLEAR     57  54  88 CALM      29.97S

$$
MOZ051-052-059>065-301000-
...EAST CENTRAL MISSOURI...

CITY           SKY/WX    TMP DP  RH WIND       PRES   REMARKS
ST LOUIS INTL  CLEAR     65  59  81 CALM      29.96S
SPIRIT OF STL  CLEAR     56  55  97 CALM      29.95S FOG
ST CHARLES     FOG       57  56  96 CALM      29.95S VSB 1/4

$$
MOZ072>076-082>087-097>100-106>115-301000-
...SOUTH CENTRAL AND SOUTHEAST MISSOURI...

CITY           SKY/WX    TMP DP  RH WIND       PRES   REMARKS
CAPE GIRARDEAU FOG       54  53  97 CALM      29.95S VSB 1/4
FARMINGTON     CLEAR     54  52  94 CALM      30.00R
POPLAR BLUFF   CLEAR     58  54  86 CALM      29.94S
WEST PLAINS    CLEAR     58  55  90 CALM      29.99F

$$


USA.gov is the U.S. government's official web portal to all federal, state and local government web resources and services.